Date,TemperatureHighF,TemperatureAvgF,TemperatureLowF,DewpointHighF,DewpointAvgF,DewpointLowF,HumidityHigh,HumidityAvg,HumidityLow,PressureMaxIn,PressureMinIn,WindSpeedMaxMPH,WindSpeedAvgMPH,GustSpeedMaxMPH,PrecipitationSumIn
2013-3-1,26.9,24.5,22.9,24.3,21.5,18.5,92,88,82,30.26,30.10,24,14,28,0.00
2013-3-2,25.2,18.9,12.0,18.8,14.1,8.2,88,81,67,30.27,30.22,14,5,18,0.00
2013-3-3,31.0,18.6,7.7,18.0,11.9,5.6,92,76,53,30.22,30.13,6,1,7,0.00
2013-3-4,31.0,26.8,16.8,27.5,22.1,10.2,88,82,71,30.15,29.97,17,8,23,0.00
2013-3-5,32.6,30.2,24.7,31.6,28.8,23.4,97,95,87,30.08,29.82,20,8,26,0.31
2013-3-6,28.5,25.8,24.0,25.0,23.5,21.6,95,91,87,30.31,30.08,14,9,24,0.00
2013-3-8,37.0,27.7,14.8,30.8,24.1,13.1,94,86,76,30.49,30.30,13,5,17,0.00
2013-3-9,40.5,35.7,30.1,37.1,32.9,26.8,94,90,86,30.30,29.83,18,8,23,0.09
2013-3-10,44.1,40.2,38.1,43.5,39.6,35.9,99,98,87,29.84,29.55,14,5,18,0.69
2013-3-11,40.8,34.1,30.6,40.4,33.5,28.3,99,98,91,29.85,29.58,16,6,24,0.05
2013-3-12,36.6,30.4,24.6,30.9,26.9,20.4,93,87,75,30.09,29.84,20,10,26,0.01
2013-3-13,32.6,26.6,21.9,22.1,19.3,15.1,86,74,50,30.37,30.09,16,7,22,0.00
2013-3-14,34.6,28.7,21.9,32.0,25.5,17.6,95,88,75,30.37,30.09,12,4,17,0.01
2013-3-15,39.4,34.3,29.0,36.4,32.5,27.7,98,93,85,30.10,29.74,12,3,15,0.01
2013-3-16,33.5,30.9,29.0,33.0,28.7,24.3,98,92,81,30.15,29.71,17,8,20,0.00
2013-3-17,34.4,30.2,24.7,29.6,25.1,19.1,87,81,73,30.23,29.97,19,8,25,0.00
2013-3-18,34.4,29.1,20.8,33.0,26.2,14.8,96,89,76,29.97,29.66,25,10,36,0.09
2013-3-19,31.7,23.4,15.7,21.7,16.2,10.2,81,74,62,30.16,29.86,24,14,33,0.00
2013-3-20,25.2,19.4,12.1,19.0,11.3,5.3,82,71,61,30.18,30.08,19,9,29,0.00
2013-3-21,31.0,21.4,11.7,20.6,14.1,7.8,89,74,57,30.13,30.05,9,3,13,0.00
2013-3-22,38.2,27.9,18.0,25.3,19.7,13.7,89,72,48,30.10,30.04,8,3,12,0.00
2013-3-23,40.7,34.5,24.6,29.1,26.0,22.1,91,72,54,30.15,30.01,12,5,15,0.00
2013-3-24,34.7,31.2,28.4,30.3,28.5,26.5,96,90,79,30.04,29.70,22,12,26,0.02
2013-3-25,35.1,31.0,26.7,30.5,26.6,22.8,92,84,78,30.13,29.78,24,10,26,0.00
2013-3-26,39.9,34.0,31.2,28.8,27.3,24.9,87,77,62,30.30,30.13,9,4,13,0.00
2013-3-27,43.4,35.6,30.9,30.8,26.8,22.0,86,72,44,30.36,30.30,14,3,17,0.00
2013-3-28,48.7,37.8,27.6,35.0,27.8,22.4,84,68,45,30.39,30.28,9,2,12,0.01
2013-3-29,53.2,42.1,32.0,37.1,31.3,26.8,84,67,43,30.33,30.22,6,2,9,0.00
2013-3-30,57.3,44.5,32.8,43.9,35.6,24.9,91,71,56,30.25,29.85,19,6,29,0.00
2013-3-31,56.4,45.2,36.5,44.1,37.8,29.1,97,77,49,29.90,29.75,20,8,32,0.01